Location: Azul
(36.7830°S, 59.8500°W)
Time: 20:09:51
(UTC-03:00)

ISS - Pass Details

Date: 24 April 2018
Orbit: 402 x 407 km, 51.6° (Epoch: 27 April)

Event Time Altitude Azimuth Distance (km) Brightness Sun altitude
Rises 20:56:03 0° 286° (WNW) 2,340 1.0 -31.4°
Reaches altitude 10° 20:58:19 10° 273° (W) 1,483 -0.1 -31.9°
Enters shadow 20:58:26 11° 272° (W) 1,443 -0.2 -31.9°
